Main page
METAR-TAF:

METAR-TAF

Airports :

Sarakhs Airport

Sarakhs, Iran

latitude: 36-30-04N, longitude: 061-03-54E, elevation: 288 m

Current weather observation

The report was made 1 hour and 10 minutes ago, at 21:00 UTC
Wind 2 kt from the South
Temperature 0°C
Humidity 69%
Pressure 1017 hPa

METAR: OIMC 222100Z AUTO 17002KT //// // ////// M00/M05 Q1017

Time: 01:40 (22:10 UTC)


TAF: missing

Weather observations and forecasts of more than 4000 airports (METAR and TAF reports).

The available stations are represented by yellow and red dots on the map.

Hover mouse over dot to see the name of the station.

Then click to see weather observations and forecasts.

To change the map : click on the green buttons with a black cross to zoom in, on the green button with a dash to zoom out, or on the green arrows for adjacent maps.


METAR-TAF: